Regional Weather Roundup
Issued by NWS

Home | Current Version | Previous Version | Text Only | Print | Product List | Glossary Off
Versions: 1 2 3 4 5 6 7 8 9 10 11 12 13 14 15 16 17 18 19 20 21 22 23 24 25 26 27 28 29 30 31 32 33 34 35 36 37 38 39 40 41 42 43 44 45 46 47 48 49 50

930
ASUS45 KTFX 231410
RWRMT
MONTANA REGIONAL WEATHER ROUNDUP
NATIONAL WEATHER SERVICE GREAT FALLS MT
800 AM MDT THU MAR 23 2017

NOTE: "FAIR" INDICATES FEW OR NO CLOUDS BELOW 12000 FEET WITH NO
SIGNIFICANT WEATHER AND/OR OBSTRUCTIONS TO VISIBILITY.

MTZ001>007-043-231500-
WEST OF THE DIVIDE

CITY           SKY/WX    TMP DP  RH WIND       PRES   REMARKS
KALISPELL      CLOUDY    35  33  92 S7        29.94R WCI  29
MISSOULA       MOCLDY    37  34  89 N5        30.00R
BUTTE          MOCLDY    33  28  81 NW8       29.91R WCI  26
MULLAN PASS    CLOUDY    25  24  96 SW6       29.92R WCI  18
ANACONDA         N/A     34  28  80 E3        29.93S
DEER LODGE       N/A     37  28  70 CALM      29.96R
EUREKA           N/A     39  34  81 SE5       29.92R
HAMILTON         N/A     37  28  70 E5        29.97S
RONAN            N/A     38  31  76 CALM      30.00S
$$

MTZ008-052>055-231500-
SOUTHWEST MONTANA

CITY           SKY/WX    TMP DP  RH WIND       PRES   REMARKS
BOZEMAN        CLOUDY    40  32  73 W7        29.88R
DILLON         CLOUDY    36  30  79 SE6       29.87R WCI  31
W YELLOWSTONE  CLOUDY    19  19 100 CALM      29.83S
ENNIS          CLOUDY    34  30  86 N5        29.91R
THREE FORKS      N/A     34  34 100 CALM      29.89R
$$

MTZ009-010-012-014-046-048-049-054-231500-
EAST SLOPES AND CENTRAL MONTANA

CITY           SKY/WX    TMP DP  RH WIND       PRES   REMARKS
CUT BANK       PTCLDY    34  28  79 W16       29.82R WCI  24
GREAT FALLS    CLOUDY    33  27  78 SW12      29.84R WCI  24
HELENA         PTCLDY    40  29  64 W9        29.90R
AUGUSTA          N/A     37  23  56 W7        29.86R
BOWMANS CRNR     N/A     33  29  84 W10       29.85R WCI  25
CHOTEAU          N/A     37  25  60 VRB7      29.86R
CONRAD           N/A     39  30  70 W13       29.86R WCI  31
FAIRFIELD        N/A     36  25  64 SW8       29.84R WCI  30
POWER            N/A     28  25  87 SW8       29.84R WCI  20
RAYNESFORD       N/A     30  24  78 CALM      29.85R
$$

MTZ011-013-016-021-045-047-050-051-231500-
NORTH CENTRAL MONTANA

CITY           SKY/WX    TMP DP  RH WIND       PRES   REMARKS
HAVRE          CLEAR     31  28  89 SW16      29.81R WCI  20
LEWISTOWN      CLOUDY    36  29  75 NE7       29.82R WCI  30
N BAR RANCH    CLOUDY    41  27  56 NW6       29.83R
CHINOOK          N/A     28  27  93 CALM      29.80S
DENTON           N/A     34  26  75 W14G23    29.80R WCI  24
FORT BENTON      N/A     34  27  75 MISG      29.86R VSB 1/2
GEYSER         MOCLDY    34  26  71 SW7       29.83R WCI  28
GRASS RANGE    MOCLDY    42  29  58 W15       29.78R
STANFORD       CLOUDY    37  27  66 NW9       29.83R WCI  31
WINIFRED       MOCLDY    38  29  68 W8        29.82R
$$

MTZ017>020-022>027-061-062-231500-
NORTHEAST MONTANA

CITY           SKY/WX    TMP DP  RH WIND       PRES   REMARKS
GLASGOW        CLOUDY    33  31  92 NW10      29.75R WCI  25
JORDAN           N/A     39  36  89 W5        29.75R
SIDNEY         CLOUDY    36  34  92 CALM      29.75R
WOLF POINT     CLOUDY    34  32  92 CALM      29.75R
MALTA          CLEAR     30  28  93 SW8       29.78R WCI  23
PLENTYWOOD       N/A     36  34  93 CALM      29.74R
POPLAR           N/A     36  34  93 CALM      29.75R
$$

MTZ028>42-056>058-231500-
SOUTHCENTRAL AND SOUTHEAST MONTANA

CITY           SKY/WX    TMP DP  RH WIND       PRES   REMARKS
BAKER          LGT RAIN  44  36  73 SE8       29.75R
BILLINGS       CLOUDY    43  39  86 NW10      29.77S
LIVINGSTON     CLOUDY    41  31  67 W7        29.85R
MILES CITY     RAIN      49  39  68 NW12G21   29.75R
BIG TIMBER     CLOUDY    43  30  61 SW15      29.84R
FORSYTH          N/A     45  43  93 W6        29.76R
HARLOWTON      MOCLDY    40  29  66 W14       29.82R
LAUREL           N/A     43  34  70 CALM      29.79R
$$

REGIONAL REPORTS...DAKOTAS

CITY           SKY/WX    TMP DP  RH WIND       PRES   REMARKS
WILLISTON      CLOUDY    34  32  92 CALM      29.74S FOG
MINOT          CLOUDY    36  30  79 S6        29.73F WCI  31
DICKINSON      CLOUDY    38  33  82 W3        29.70R
BEACH            N/A    N/A N/A N/A MISG        N/A
TIOGA            N/A     30  30 100 CALM      29.75S
BISMARCK       LGT RAIN  34  32  92 N8        29.73F WCI  27
GRAND FORKS    CLOUDY    35  23  61 S14       29.86F WCI  26
FARGO          CLOUDY    38  26  62 S23G32    29.88F WCI  27
BUFFALO SD       N/A     44  39  82 CALM      29.66R
RAPID CITY     MOSUNNY   47  40  76 N16       29.65F
$$

REGIONAL REPORTS...WYOMING/IDAHO/WASHINGTON

CITY           SKY/WX    TMP DP  RH WIND       PRES   REMARKS
GILLETTE       CLOUDY    43  41  93 NW6       29.70R
SHERIDAN       LGT RAIN  44  42  93 N5        29.75S
BUFFALO WY     LGT RAIN  43  37  79 NW15G23   29.75R
CODY           CLOUDY    44  33  65 N7        29.75F
YELLOWSTONE LA   N/A     30  26  85 VRB7      29.80F WCI  23
IDAHO FALLS    CLOUDY    35  34  96 SW6       29.80R WCI  30
SALMON         CLOUDY    39  27  60 CALM      29.93R
BOISE          CLEAR     37  31  78 W12       29.97R WCI  29
SPOKANE        MOCLDY    34  31  88 S14       30.01S WCI  25
$$

REGIONAL REPORTS...ALBERTA

CITY           SKY/WX    TMP DP  RH WIND       PRES   REMARKS
EDMONTON       CLEAR     21  18  86 E3        29.73S
CALGARY        PTCLDY    39  23  52 W5        29.70R
LETHBRIDGE     PTCLDY    36  28  75 SW15      29.77S WCI  26
MEDICINE HAT   MOCLDY    34  30  86 VRB2      29.74S
WATERTON GATE    N/A     37  28  70 SW16G28     N/A  WCI  28
CARDSTON         N/A     34  27  75 S3          N/A
MILK RIVER       N/A     36  28  75 W3          N/A
ONEFOUR          N/A     34  27  75 SE2         N/A
$$

REGIONAL REPORTS...SASKATCHEWAN

CITY           SKY/WX    TMP DP  RH WIND       PRES   REMARKS
SWIFT CURRENT  FOG       28  28 100 S3        29.74R VSB 0
REGINA         CLOUDY    30  28  93 N12G17    29.77S WCI  21
SASKATOON      PTCLDY    25  21  86 W10       29.80R WCI  15
CYPRESS HILLS    N/A     39  25  56 NW6         N/A
VAL MARIE        N/A     28  25  86 NW2         N/A
ROCKGLEN         N/A     37  28  70 N7          N/A
$$




USA.gov is the U.S. government's official web portal to all federal, state and local government web resources and services.